When you browse on this site, cookies collect data to enhance your experience and personalize the content and advertising you see.
Visit our Privacy Policy to learn more. By continuing to use the site, you agree to this use of cookies and data.
  • en Suisse
  • Liste des pays
  • À 7 jours
  • Température de l'eau
  • Carte satellitaire
  • Carte météo
  • Widgets météo
  • user-avatar
    Se connecter

    Météo par heure à Nurtingen

    Ce jour, 18 Juillet, Jeudi

    Heure Température Précipitation Vent Pression Humidité
    00:00 +18°C° 0 mm 1 m/s 735 mmHg 74%
    01:00 +18°C° 0 mm 1 m/s 735 mmHg 75%
    02:00 +18°C° 0 mm 1 m/s 735 mmHg 75%
    03:00 +18°C° 0 mm 1 m/s 735 mmHg 76%
    04:00 +16°C° 0 mm 1 m/s 735 mmHg 77%
    05:00 +18°C° 0 mm 1 m/s 735 mmHg 75%
    06:00 +19°C° 0 mm 1 m/s 735 mmHg 74%
    07:00 +20°C° 0 mm 1 m/s 735 mmHg 72%
    08:00 +22°C° 0 mm 1 m/s 735 mmHg 67%
    09:00 +23°C° 0 mm 1 m/s 736 mmHg 62%
    10:00 +25°C° 0 mm 1 m/s 736 mmHg 56%
    11:00 +26°C° 0 mm 1 m/s 736 mmHg 53%
    12:00 +26°C° 0 mm 2 m/s 736 mmHg 49%
    13:00 +27°C° 0 mm 2 m/s 735 mmHg 45%
    14:00 +27°C° 0 mm 2 m/s 735 mmHg 46%
    15:00 +27°C° 0 mm 2 m/s 735 mmHg 46%
    16:00 +28°C° 0 mm 2 m/s 735 mmHg 46%
    17:00 +26°C° 0 mm 2 m/s 735 mmHg 52%
    18:00 +25°C° 0 mm 1 m/s 735 mmHg 57%
    19:00 +24°C° 0 mm 1 m/s 735 mmHg 62%
    20:00 +23°C° 0.1 mm 1 m/s 736 mmHg 65%
    21:00 +22°C° 0.1 mm 1 m/s 736 mmHg 68%
    22:00 +20°C° 0.1 mm 2 m/s 736 mmHg 70%
    23:00 +19°C° 0.1 mm 2 m/s 736 mmHg 73%

    Demain, 19 Juillet, Vendredi

    Heure Température Précipitation Vent Pression Humidité
    00:00 +19°C° 0.1 mm 2 m/s 736 mmHg 76%
    01:00 +19°C° 0.1 mm 1 m/s 736 mmHg 79%
    02:00 +19°C° 0.1 mm 1 m/s 736 mmHg 81%
    03:00 +19°C° 0.1 mm 1 m/s 737 mmHg 83%
    04:00 +19°C° 0.1 mm 1 m/s 737 mmHg 85%
    05:00 +20°C° 0 mm 1 m/s 737 mmHg 83%
    06:00 +20°C° 0 mm 1 m/s 737 mmHg 82%
    07:00 +21°C° 0 mm 1 m/s 737 mmHg 81%
    08:00 +22°C° 0.1 mm 1 m/s 737 mmHg 74%
    09:00 +24°C° 0.1 mm 1 m/s 738 mmHg 66%
    10:00 +25°C° 0.1 mm 1 m/s 738 mmHg 59%
    11:00 +26°C° 0.2 mm 1 m/s 737 mmHg 58%
    12:00 +26°C° 0.2 mm 2 m/s 737 mmHg 58%
    13:00 +27°C° 0.2 mm 2 m/s 737 mmHg 57%
    14:00 +26°C° 0.3 mm 2 m/s 737 mmHg 60%
    15:00 +26°C° 0.3 mm 2 m/s 737 mmHg 62%
    16:00 +26°C° 0.3 mm 2 m/s 737 mmHg 65%
    17:00 +25°C° 0.1 mm 1 m/s 737 mmHg 68%
    18:00 +25°C° 0.1 mm 1 m/s 737 mmHg 71%
    19:00 +22°C° 0.1 mm 0 m/s 737 mmHg 74%
    20:00 +21°C° 0 mm 0 m/s 737 mmHg 76%
    21:00 +22°C° 0 mm 1 m/s 738 mmHg 79%
    22:00 +20°C° 0 mm 1 m/s 738 mmHg 82%
    23:00 +20°C° 0 mm 1 m/s 738 mmHg 83%

    Après-demain, 20 Juillet, Samedi

    Heure Température Précipitation Vent Pression Humidité
    00:00 +20°C° 0 mm 1 m/s 738 mmHg 85%
    01:00 +19°C° 0 mm 1 m/s 738 mmHg 86%
    02:00 +19°C° 0 mm 1 m/s 737 mmHg 87%
    03:00 +19°C° 0 mm 1 m/s 737 mmHg 87%
    04:00 +18°C° 0 mm 1 m/s 737 mmHg 88%
    05:00 +19°C° 0 mm 1 m/s 737 mmHg 85%
    06:00 +21°C° 0 mm 1 m/s 737 mmHg 82%
    07:00 +22°C° 0 mm 1 m/s 737 mmHg 79%
    08:00 +24°C° 0 mm 2 m/s 737 mmHg 73%
    09:00 +26°C° 0 mm 2 m/s 737 mmHg 67%
    10:00 +28°C° 0 mm 2 m/s 738 mmHg 60%
    11:00 +28°C° 0.2 mm 2 m/s 738 mmHg 57%
    12:00 +29°C° 0.2 mm 2 m/s 738 mmHg 53%
    13:00 +30°C° 0.2 mm 3 m/s 738 mmHg 50%
    14:00 +31°C° 0.1 mm 3 m/s 737 mmHg 49%
    15:00 +31°C° 0.1 mm 3 m/s 737 mmHg 49%
    16:00 +31°C° 0.1 mm 3 m/s 737 mmHg 48%
    17:00 +30°C° 0 mm 3 m/s 738 mmHg 53%
    18:00 +29°C° 0 mm 3 m/s 738 mmHg 58%
    19:00 +27°C° 0 mm 2 m/s 738 mmHg 63%
    20:00 +26°C° 0.1 mm 2 m/s 738 mmHg 65%
    21:00 +24°C° 0.1 mm 2 m/s 738 mmHg 66%
    22:00 +23°C° 0.1 mm 2 m/s 739 mmHg 68%
    23:00 +21°C° 0.7 mm 2 m/s 739 mmHg 74%

    21 Juillet, Dimanche

    Heure Température Précipitation Vent Pression Humidité
    00:00 +21°C° 0.7 mm 2 m/s 739 mmHg 80%
    01:00 +21°C° 0.7 mm 1 m/s 739 mmHg 86%
    02:00 +21°C° 0.6 mm 1 m/s 739 mmHg 87%
    03:00 +20°C° 0.6 mm 1 m/s 739 mmHg 88%
    04:00 +20°C° 0.6 mm 1 m/s 739 mmHg 89%
    05:00 +21°C° 0.5 mm 1 m/s 740 mmHg 88%
    06:00 +22°C° 0.5 mm 1 m/s 740 mmHg 88%
    07:00 +22°C° 0.5 mm 1 m/s 740 mmHg 87%
    08:00 +24°C° 0.2 mm 2 m/s 741 mmHg 81%
    09:00 +25°C° 0.2 mm 2 m/s 741 mmHg 76%
    10:00 +27°C° 0.2 mm 2 m/s 742 mmHg 70%
    11:00 +27°C° 0.4 mm 2 m/s 742 mmHg 67%
    12:00 +28°C° 0.4 mm 2 m/s 742 mmHg 64%
    13:00 +28°C° 0.4 mm 3 m/s 742 mmHg 61%
    14:00 +29°C° 0.3 mm 2 m/s 742 mmHg 61%
    15:00 +29°C° 0.3 mm 2 m/s 742 mmHg 60%
    16:00 +29°C° 0.3 mm 2 m/s 742 mmHg 60%
    17:00 +28°C° 0 mm 1 m/s 742 mmHg 63%
    18:00 +27°C° 0 mm 1 m/s 742 mmHg 66%
    19:00 +27°C° 0 mm 1 m/s 742 mmHg 69%
    20:00 +25°C° 0 mm 1 m/s 742 mmHg 72%
    21:00 +23°C° 0 mm 1 m/s 742 mmHg 75%
    22:00 +22°C° 0 mm 1 m/s 743 mmHg 78%
    23:00 +21°C° 0 mm 1 m/s 743 mmHg 80%

    22 Juillet, Lundi

    Heure Température Précipitation Vent Pression Humidité
    00:00 +21°C° 0 mm 1 m/s 743 mmHg 81%
    01:00 +20°C° 0 mm 1 m/s 743 mmHg 83%
    02:00 +20°C° 0 mm 1 m/s 742 mmHg 84%
    03:00 +20°C° 0 mm 1 m/s 742 mmHg 85%
    04:00 +19°C° 0 mm 1 m/s 742 mmHg 87%
    05:00 +21°C° 0 mm 1 m/s 742 mmHg 84%
    06:00 +22°C° 0 mm 1 m/s 742 mmHg 82%
    07:00 +23°C° 0 mm 1 m/s 743 mmHg 80%
    08:00 +25°C° 0 mm 1 m/s 743 mmHg 75%
    09:00 +26°C° 0 mm 1 m/s 743 mmHg 69%
    10:00 +28°C° 0 mm 1 m/s 743 mmHg 64%
    11:00 +29°C° 0 mm 1 m/s 742 mmHg 60%
    12:00 +30°C° 0 mm 1 m/s 742 mmHg 56%
    13:00 +31°C° 0 mm 1 m/s 742 mmHg 52%
    14:00 +32°C° 0 mm 1 m/s 742 mmHg 51%
    15:00 +32°C° 0 mm 1 m/s 741 mmHg 51%
    16:00 +32°C° 0 mm 1 m/s 741 mmHg 51%
    17:00 +31°C° 0 mm 2 m/s 741 mmHg 57%
    18:00 +29°C° 0 mm 2 m/s 741 mmHg 64%
    19:00 +28°C° 0 mm 2 m/s 741 mmHg 71%
    20:00 +27°C° 0 mm 2 m/s 741 mmHg 74%
    21:00 +25°C° 0 mm 2 m/s 741 mmHg 77%
    22:00 +23°C° 0 mm 2 m/s 741 mmHg 80%
    23:00 +23°C° 0 mm 1 m/s 741 mmHg 81%

    23 Juillet, Mardi

    Heure Température Précipitation Vent Pression Humidité
    00:00 +22°C° 0 mm 1 m/s 741 mmHg 81%
    01:00 +22°C° 0 mm 1 m/s 741 mmHg 82%
    02:00 +21°C° 0 mm 1 m/s 741 mmHg 83%
    03:00 +21°C° 0 mm 1 m/s 740 mmHg 83%
    04:00 +21°C° 0 mm 1 m/s 740 mmHg 84%
    05:00 +22°C° 0 mm 1 m/s 740 mmHg 82%
    06:00 +23°C° 0 mm 1 m/s 740 mmHg 79%
    07:00 +23°C° 0 mm 1 m/s 740 mmHg 77%
    08:00 +25°C° 0 mm 1 m/s 740 mmHg 71%
    09:00 +27°C° 0 mm 2 m/s 740 mmHg 65%
    10:00 +29°C° 0 mm 2 m/s 740 mmHg 59%
    11:00 +30°C° 0 mm 2 m/s 740 mmHg 57%
    12:00 +31°C° 0 mm 3 m/s 739 mmHg 55%
    13:00 +31°C° 0 mm 3 m/s 739 mmHg 52%
    14:00 +31°C° 0 mm 3 m/s 739 mmHg 53%
    15:00 +31°C° 0 mm 3 m/s 739 mmHg 54%
    16:00 +31°C° 0 mm 3 m/s 738 mmHg 55%
    17:00 +30°C° 0 mm 3 m/s 738 mmHg 60%
    18:00 +29°C° 0 mm 3 m/s 738 mmHg 65%
    19:00 +27°C° 0 mm 3 m/s 738 mmHg 70%
    20:00 +26°C° 0 mm 2 m/s 738 mmHg 72%
    21:00 +24°C° 0 mm 2 m/s 738 mmHg 75%
    22:00 +23°C° 0 mm 2 m/s 738 mmHg 77%
    23:00 +21°C° 0 mm 2 m/s 738 mmHg 78%
    Voir plus